TimeEST,TemperatureF,Dew PointF,Humidity,Sea Level PressureIn,VisibilityMPH,Wind Direction,Wind SpeedMPH,Gust SpeedMPH,PrecipitationIn,Events,Conditions,WindDirDegrees,DateUTC
12:15 AM,28.4,17.6,64,30.24,10.0,South,6.9,-,N/A,,Clear,190,2012-12-14 05:15:00
12:35 AM,28.4,19.4,69,30.23,10.0,South,8.1,-,N/A,,Clear,190,2012-12-14 05:35:00
12:55 AM,28.4,19.4,69,30.22,10.0,South,9.2,-,N/A,,Clear,190,2012-12-14 05:55:00
1:15 AM,28.4,19.4,69,30.22,10.0,SSW,9.2,-,N/A,,Clear,200,2012-12-14 06:15:00
1:35 AM,28.4,19.4,69,30.22,10.0,SSW,8.1,-,N/A,,Clear,200,2012-12-14 06:35:00
1:55 AM,28.4,19.4,69,30.22,10.0,SSW,8.1,-,N/A,,Clear,200,2012-12-14 06:55:00
2:15 AM,28.4,17.6,64,30.23,10.0,SSW,5.8,-,N/A,,Clear,200,2012-12-14 07:15:00
2:35 AM,28.4,17.6,64,30.23,10.0,SSW,8.1,-,N/A,,Clear,210,2012-12-14 07:35:00
2:55 AM,28.4,19.4,69,30.23,10.0,SSW,9.2,-,N/A,,Clear,200,2012-12-14 07:55:00
3:15 AM,30.2,19.4,64,30.22,10.0,SSW,8.1,-,N/A,,Clear,210,2012-12-14 08:15:00
3:35 AM,30.2,19.4,64,30.23,10.0,SW,6.9,-,N/A,,Clear,230,2012-12-14 08:35:00
3:55 AM,30.2,19.4,64,30.23,10.0,SW,8.1,-,N/A,,Clear,230,2012-12-14 08:55:00
4:15 AM,30.2,19.4,64,30.22,10.0,SW,6.9,-,N/A,,Clear,230,2012-12-14 09:15:00
4:35 AM,30.2,19.4,64,30.22,10.0,SW,9.2,-,N/A,,Clear,220,2012-12-14 09:35:00
4:55 AM,30.2,19.4,64,30.22,10.0,SW,8.1,-,N/A,,Clear,220,2012-12-14 09:55:00
5:15 AM,30.2,19.4,64,30.22,10.0,SW,8.1,-,N/A,,Clear,220,2012-12-14 10:15:00
5:55 AM,30.2,19.4,64,30.23,10.0,SW,8.1,-,N/A,,Clear,220,2012-12-14 10:55:00
6:15 AM,30.2,19.4,64,30.23,10.0,SW,8.1,-,N/A,,Clear,220,2012-12-14 11:15:00
6:35 AM,30.2,19.4,64,30.22,10.0,SW,9.2,-,N/A,,Clear,220,2012-12-14 11:35:00
6:55 AM,30.2,21.2,69,30.23,10.0,SW,8.1,-,N/A,,Clear,220,2012-12-14 11:55:00
7:15 AM,28.4,19.4,69,30.22,10.0,SW,8.1,-,N/A,,Clear,220,2012-12-14 12:15:00
7:35 AM,28.4,21.2,74,30.22,10.0,SW,8.1,-,N/A,,Clear,220,2012-12-14 12:35:00
7:55 AM,28.4,21.2,74,30.23,10.0,SW,8.1,-,N/A,,Clear,220,2012-12-14 12:55:00
8:15 AM,30.2,21.2,69,30.22,10.0,SW,6.9,-,N/A,,Clear,220,2012-12-14 13:15:00
8:35 AM,30.2,21.2,69,30.23,10.0,SW,8.1,-,N/A,,Clear,220,2012-12-14 13:35:00
8:55 AM,30.2,21.2,69,30.23,10.0,SW,8.1,-,N/A,,Clear,220,2012-12-14 13:55:00
9:15 AM,32.0,21.2,64,30.23,10.0,SW,6.9,-,N/A,,Clear,230,2012-12-14 14:15:00
9:35 AM,33.8,23.0,65,30.24,10.0,SW,8.1,-,N/A,,Clear,230,2012-12-14 14:35:00
9:55 AM,35.6,23.0,60,30.25,10.0,SW,8.1,-,N/A,,Clear,230,2012-12-14 14:55:00
10:15 AM,37.4,24.8,60,30.25,10.0,WSW,10.4,-,N/A,,Clear,240,2012-12-14 15:15:00
10:35 AM,37.4,24.8,60,30.25,10.0,West,9.2,-,N/A,,Clear,260,2012-12-14 15:35:00
10:55 AM,39.2,24.8,56,30.25,10.0,SW,4.6,-,N/A,,Clear,230,2012-12-14 15:55:00
11:15 AM,39.2,24.8,56,30.24,10.0,West,8.1,-,N/A,,Clear,260,2012-12-14 16:15:00
11:35 AM,41.0,26.6,57,30.24,10.0,West,8.1,-,N/A,,Clear,260,2012-12-14 16:35:00
11:55 AM,41.0,26.6,57,30.24,10.0,WSW,6.9,-,N/A,,Clear,250,2012-12-14 16:55:00
12:15 PM,42.8,26.6,53,30.24,10.0,WSW,5.8,-,N/A,,Clear,240,2012-12-14 17:15:00
12:35 PM,42.8,26.6,53,30.24,10.0,SW,6.9,-,N/A,,Clear,220,2012-12-14 17:35:00
12:55 PM,42.8,26.6,53,30.23,10.0,West,9.2,-,N/A,,Clear,280,2012-12-14 17:55:00
1:15 PM,42.8,26.6,53,30.23,10.0,West,8.1,-,N/A,,Clear,260,2012-12-14 18:15:00
1:35 PM,42.8,26.6,53,30.22,10.0,SW,8.1,-,N/A,,Clear,220,2012-12-14 18:35:00
2:15 PM,44.6,26.6,49,30.21,10.0,West,8.1,-,N/A,,Clear,270,2012-12-14 19:15:00
2:35 PM,44.6,26.6,49,30.21,10.0,WNW,5.8,-,N/A,,Clear,300,2012-12-14 19:35:00
2:55 PM,44.6,26.6,49,30.21,10.0,West,6.9,-,N/A,,Clear,270,2012-12-14 19:55:00
3:15 PM,44.6,26.6,49,30.21,10.0,SW,5.8,-,N/A,,Clear,230,2012-12-14 20:15:00
3:35 PM,44.6,26.6,49,30.21,10.0,WSW,6.9,-,N/A,,Clear,250,2012-12-14 20:35:00
3:55 PM,44.6,26.6,49,30.21,10.0,WSW,3.5,-,N/A,,Clear,250,2012-12-14 20:55:00
4:15 PM,44.6,26.6,49,30.21,10.0,SW,3.5,-,N/A,,Clear,230,2012-12-14 21:15:00
4:35 PM,42.8,26.6,53,30.21,10.0,SSW,5.8,-,N/A,,Clear,210,2012-12-14 21:35:00
4:55 PM,37.4,24.8,60,30.22,10.0,SW,3.5,-,N/A,,Clear,220,2012-12-14 21:55:00
5:15 PM,39.2,24.8,56,30.22,10.0,Calm,Calm,-,N/A,,Clear,0,2012-12-14 22:15:00
5:35 PM,39.2,24.8,56,30.22,10.0,SW,3.5,-,N/A,,Clear,220,2012-12-14 22:35:00
5:55 PM,39.2,24.8,56,30.22,10.0,Calm,Calm,-,N/A,,Clear,0,2012-12-14 22:55:00
6:15 PM,37.4,24.8,60,30.23,10.0,Calm,Calm,-,N/A,,Clear,0,2012-12-14 23:15:00
6:35 PM,35.6,24.8,65,30.22,10.0,Calm,Calm,-,N/A,,Clear,0,2012-12-14 23:35:00
6:55 PM,37.4,24.8,60,30.23,10.0,Calm,Calm,-,N/A,,Clear,0,2012-12-14 23:55:00
7:15 PM,35.6,24.8,65,30.22,10.0,Calm,Calm,-,N/A,,Clear,0,2012-12-15 00:15:00
7:35 PM,33.8,24.8,70,30.23,10.0,Calm,Calm,-,N/A,,Clear,0,2012-12-15 00:35:00
7:55 PM,35.6,26.6,70,30.22,10.0,Calm,Calm,-,N/A,,Clear,0,2012-12-15 00:55:00
8:15 PM,33.8,24.8,70,30.22,10.0,Calm,Calm,-,N/A,,Clear,0,2012-12-15 01:15:00
8:35 PM,33.8,24.8,70,30.23,10.0,Calm,Calm,-,N/A,,Clear,0,2012-12-15 01:35:00
8:55 PM,33.8,24.8,70,30.22,10.0,Calm,Calm,-,N/A,,Clear,0,2012-12-15 01:55:00
9:35 PM,32.0,24.8,75,30.22,10.0,Calm,Calm,-,N/A,,Clear,0,2012-12-15 02:35:00
9:55 PM,30.2,24.8,80,30.23,10.0,Calm,Calm,-,N/A,,Clear,0,2012-12-15 02:55:00
10:15 PM,30.2,24.8,80,30.23,10.0,Calm,Calm,-,N/A,,Clear,0,2012-12-15 03:15:00
10:35 PM,30.2,24.8,80,30.23,10.0,Calm,Calm,-,N/A,,Clear,0,2012-12-15 03:35:00
10:55 PM,32.0,24.8,75,30.23,10.0,South,3.5,-,N/A,,Clear,170,2012-12-15 03:55:00
11:15 PM,32.0,24.8,75,30.23,10.0,South,3.5,-,N/A,,Clear,170,2012-12-15 04:15:00
11:35 PM,30.2,24.8,80,30.22,10.0,Calm,Calm,-,N/A,,Clear,0,2012-12-15 04:35:00
11:55 PM,28.4,24.8,86,30.22,10.0,Calm,Calm,-,N/A,,Clear,0,2012-12-15 04:55:00